Regional Weather Roundup
Issued by NWS

Home | Current Version | Previous Version | Graphics & Text | Print | Product List | Glossary On
Versions: 1 2 3 4 5 6 7 8 9 10 11 12 13 14 15 16 17 18 19 20 21 22 23 24 25 26 27 28 29 30 31 32 33 34 35 36 37 38 39 40 41 42 43 44 45 46 47 48 49 50
000
ASUS43 KDTX 211810
RWRMI
MICHIGAN HOURLY REGIONAL WEATHER ROUNDUP
NATIONAL WEATHER SERVICE DETROIT/PONTIAC MI
100 PM EST FRI NOV 21 2014

NOTE: "FAIR" INDICATES FEW OR NO CLOUDS BELOW 12,000 FEET WITH NO
SIGNIFICANT WEATHER AND/OR OBSTRUCTION TO VISIBILITY.

MIZ047>049-052>055-059>063-066>070-074>076-081>083-211900-
SOUTHEAST LOWER MICHIGAN

CITY           SKY/WX    TMP DP  RH WIND       PRES   REMARKS
ADRIAN         MOSUNNY   24  13  62 W8        30.48F WCI  15
6HR MIN TEMP:  15; 6HR MAX TEMP:  24;

ALMA           MOSUNNY   25  12  59 S8        30.42F WCI  16
ANN ARBOR      SUNNY     24  10  55 W9        30.45F WCI  14
BAD AXE        PTSUNNY   24  12  60 W10       30.40R WCI  13
6HR MIN TEMP:   6; 6HR MAX TEMP:  24;

CARO           SUNNY     25  10  54 W8        30.41F WCI  16
DETROIT CITY   SUNNY     25   7  46 W8        30.47S WCI  16
6HR MIN TEMP:  14; 6HR MAX TEMP:  26;

DETROIT        MOSUNNY   26   9  48 SW10      30.48S WCI  16
6HR MIN TEMP:  14; 6HR MAX TEMP:  26;

FLINT          SUNNY     25   9  50 W10       30.44F WCI  15
6HR MIN TEMP:   3; 6HR MAX TEMP:  25;

GROSSE ILE     SUNNY     27   9  46 SW10      30.46S WCI  17
HILLSDALE      MOSUNNY   26  12  55 SW5       30.43S WCI  21
6HR MIN TEMP:  10; 6HR MAX TEMP:  26;

HOWELL         SUNNY     23   9  56 W10       30.43F WCI  12
6HR MIN TEMP:   5; 6HR MAX TEMP:  23;


CITY           SKY/WX    TMP DP  RH WIND       PRES   REMARKS
JACKSON        MOSUNNY   24  13  62 W7        30.44F WCI  16
6HR MIN TEMP:  12; 6HR MAX TEMP:  24;

LAMBERTVILLE   MOSUNNY   27  12  54 W6        30.49F WCI  20
LANSING        SUNNY     24  11  57 W6        30.44F WCI  17
6HR MIN TEMP:   8; 6HR MAX TEMP:  24; 6HR PCP: TRACE;

LAPEER         FAIR      22  10  58 W8        30.42F WCI  13
MASON          SUNNY     25  12  59 SW5       30.43F WCI  19
MONROE         MOSUNNY   25  12  58 SW7       30.47S WCI  17
MT. CLEMENS    SUNNY     24   7  48 SW8       30.43S WCI  15
6HR MIN TEMP:  11; 6HR MAX TEMP:  24;

PONTIAC        SUNNY     22   7  52 W13       30.42F WCI  10
6HR MIN TEMP:   9; 6HR MAX TEMP:  22;

PORT HOPE        N/A     26  10  50 W8        30.37S WCI  18
6HR MIN TEMP:  19; 6HR MAX TEMP:  26;

PORT HURON     SUNNY     23   9  54 S8        30.44F WCI  14
TRI CITIES     MOSUNNY   25  12  58 SW9G20    30.42F WCI  15
6HR MIN TEMP:   8; 6HR MAX TEMP:  25;

TROY           SUNNY     27   7  43 W9        30.46F WCI  17
SAGINAW HB     MOSUNNY   27  12  54 W9        30.42S WCI  17
$$
MIZ043>046-050>051-056>058-064>065-071>073-077>080-211900-
SOUTHWEST LOWER MICHIGAN

CITY           SKY/WX    TMP DP  RH WIND       PRES   REMARKS
BATTLE CREEK   PTSUNNY   25  13  60 SW12      30.44F WCI  14
6HR MIN TEMP:  11; 6HR MAX TEMP:  26;

BENTON HARBOR  MOSUNNY   29  14  53 S7        30.43F WCI  22
6HR MIN TEMP:  21; 6HR MAX TEMP:  30;

BIG RAPIDS     MOSUNNY   26  13  59 SW9       30.37F WCI  16
6HR MIN TEMP:   7; 6HR MAX TEMP:  26;

COLDWATER      MOSUNNY   27  14  59 SW7       30.45S WCI  19
6HR MIN TEMP:  13; 6HR MAX TEMP:  28;

FREMONT        CLOUDY    26  14  61 S10       30.39F WCI  16
6HR MIN TEMP:  11; 6HR MAX TEMP:  26;

HOLLAND        MOSUNNY   29  16  58 SW10      30.43F WCI  20
6HR MIN TEMP:  18; 6HR MAX TEMP:  30; 6HR PCP: TRACE;

GRAND RAPIDS   MOSUNNY   24  15  68 VRB7      30.42F WCI  16
6HR MIN TEMP:  10; 6HR MAX TEMP:  24;

IONIA          FAIR      25  14  64 SW8       30.42F WCI  16
KALAMAZOO      MOSUNNY   25  14  63 S10       30.44F WCI  15
6HR MIN TEMP:  13; 6HR MAX TEMP:  26;

LUDINGTON      MOSUNNY   27  17  64 SW14      30.38F WCI  16
6HR MIN TEMP:  17; 6HR MAX TEMP:  27;

MARSHALL       MOSUNNY   23  12  63 SW6       30.43F WCI  16
MOUNT PLEASANT CLOUDY    27  13  56 S9        30.40F WCI  17
6HR MIN TEMP:   6; 6HR MAX TEMP:  27;

MUSKEGON       PTSUNNY   27  14  58 SW12      30.42S WCI  17
6HR MIN TEMP:  18; 6HR MAX TEMP:  28; 6HR PCP: TRACE;

SOUTH HAVEN    MOSUNNY   30  16  56 S6        30.42F WCI  24
$$
MIZ016>042-211900-
NORTHERN LOWER MICHIGAN

CITY           SKY/WX    TMP DP  RH WIND       PRES   REMARKS
BEAVER ISLAND  CLOUDY    27  16  64 SW16G23   30.28F WCI  14
6HR MIN TEMP:  21; 6HR MAX TEMP:  27;

BELLAIRE       CLOUDY    26  15  63 S5        30.34F WCI  20
CADILLAC       CLOUDY    21  13  71 SW8       30.31F WCI  12
CHARLEVOIX     PTSUNNY   26  15  62 SW13G18   30.34S WCI  15
6HR MIN TEMP:  22; 6HR MAX TEMP:  26;

FRANKFORT      PTSUNNY   27  16  62 SW12G17   30.35F WCI  17
GAYLORD        PTSUNNY   20  13  74 W14       30.28F WCI   7
6HR MIN TEMP:  13; 6HR MAX TEMP:  21; 6HR PCP: TRACE;

GRAYLING       CLOUDY    23  13  64 SW10G16   30.32F WCI  12
6HR MIN TEMP:  13; 6HR MAX TEMP:  24;

HARBOR SPRINGS CLOUDY    26  14  59 SW15G24   30.30S WCI  14
HOUGHTON LAKE  PTSUNNY   21  12  68 SW10      30.34F WCI  10
6HR MIN TEMP:  11; 6HR MAX TEMP:  22;

MANISTEE       MOSUNNY   28  10  47 SW12G17   30.37F WCI  18
OSCODA         MOSUNNY   26  13  57 W10       30.35F WCI  17
PELLSTON       CLOUDY    25  16  68 SW9G17    30.29F WCI  15
6HR MIN TEMP:  13; 6HR MAX TEMP:  26; 6HR PCP: TRACE;

ROGERS CITY    PTSUNNY   25  17  71 SW9       30.32F WCI  15
TRAVERSE CITY  PTSUNNY   26  12  55 VRB7G17   30.34F WCI  18
6HR MIN TEMP:  17; 6HR MAX TEMP:  27; 6HR PCP: TRACE;

$$
MIZ007>008-015-211900-
EASTERN UPPER MICHIGAN

CITY           SKY/WX    TMP DP  RH WIND       PRES   REMARKS
KINROSS        PTSUNNY   25  12  58 W8        30.25F WCI  16
6HR MIN TEMP:  10; 6HR MAX TEMP:  25;

MACKINAC ISLAN CLOUDY    26  17  68 W13G20    30.27F WCI  15
6HR MIN TEMP:  20; 6HR MAX TEMP:  26;

NEWBERRY       PTSUNNY   20  11  69 SW18      30.23F WCI   4
S. S. MARIE    PTSUNNY   21  11  65 SW8       30.28R WCI  11
6HR MIN TEMP:  12; 6HR MAX TEMP:  21; 6HR PCP:  0.03;

MUNISING         N/A     20   5  52 S9        30.22F WCI   9
6HR MIN TEMP:  10; 6HR MAX TEMP:  20;

$$
MIZ004>006-011>014-085-211900-
CENTRAL UPPER MICHIGAN

CITY           SKY/WX    TMP DP  RH WIND       PRES   REMARKS
MANISTIQUE     PTSUNNY   23  11  60 SW9       30.26F WCI  13
ESCANABA       CLOUDY    21   5  49 SW10      30.25F WCI  10
6HR MIN TEMP:   3; 6HR MAX TEMP:  21;

MENOMINEE      CLOUDY    21   3  45 SW9       30.29F WCI  11
6HR MIN TEMP:   7; 6HR MAX TEMP:  21;

SAWYER-GWINN   CLOUDY    16   5  62 S18       30.17F WCI  -1
$$
MIZ001>003-009>011-084-211900-
WESTERN UPPER MICHIGAN

CITY           SKY/WX    TMP DP  RH WIND       PRES   REMARKS
IRON MOUNTAIN  CLOUDY    19   1  45 S14       30.19F WCI   6
6HR MIN TEMP:   3; 6HR MAX TEMP:  19;

HOUGHTON       CLOUDY    17   6  62 S12       30.06F WCI   4
6HR MIN TEMP:  10; 6HR MAX TEMP:  17; 6HR PCP: TRACE;

COPPER HARBOR    N/A     20   6  55 SW10      30.09F WCI   9
6HR MIN TEMP:  17; 6HR MAX TEMP:  20;

IRONWOOD       MOSUNNY   21   3  45 SW13G21   30.04F WCI   9
6HR MIN TEMP:   5; 6HR MAX TEMP:  21;

$$

ABBREVIATIONS USED IN REMARKS
   TC - TEMPERATURE IN CELSIUS
  WCI - WIND CHILL INDEX
   HX - HEAT INDEX
  VSB - VISIBILITY



USA.gov is the U.S. government's official web portal to all federal, state and local government web resources and services.